Content
SEND FEEDBACK

Daily
Averages
Monthly
Summary
Mexico

CHETUMAL, QUINTANA ROO


Home > North America > Mexico > Quintana Roo
Elevation: 30 feet     Latitude: 18 31N     Longitude: 088 18W

WEATHER
 
SELECT A DAY
Number of Records: 122,428;   Date Range: 1/1/95 - 8/31/14
 
SHARE

PRINT THIS DATA

[ ← Previous Day ]
WEATHER ALMANAC - JANUARY 31, 2013
[ Next Day → ]
[ °C ]   °F
Weather ElementAverageHighLow
Temperature77.5 °F89 °F (11:50 am)71.6 °F (6:04 am)
Dewpoint69.9 °F77 °F (12:45 pm)64.4 °F (7:45 am)
Humidity76.8 %96 % (5:50 am)46 % (11:50 am)
Barometer30.05 in30.11 in (8:50 pm)30.00 in (6:04 am)
Wind Speed4.1 mph11.5 mph (5:40 pm)
Weather ElementAverage
Visibility6.4 mi
Wind DirectionS (184.3 °)

Weather ElementTotal
Precipitation---
Cooling Degree Days15.3 (Base 65)
Growing Degree Days30.3 (Base 50)
Averaged from 23 records on January 31, 2013
WEATHER CONDITIONS BREAKOUT
WIND DIRECTION BREAKOUT
WEATHER BY HOUR - JANUARY 31, 2013
[ °C ]   °F
Local TimeTemperatureDewpointHumidityBarometerVisibilityWind DirectionWind SpeedGust SpeedPrecipitationEventsConditions
5:50 AM72.0 °F71.0 °F96 %30.01 in5.0 miNNW (340°)4.5 mphMostly Cloudy
6:04 AM71.6 °F66.2 °F83 %30.00 in7.0 miNorth (360°)5.8 mphOvercast
6:45 AM77.0 °F73.4 °F89 %30.01 in7.0 miNNW (330°)4.6 mphMostly Cloudy
7:45 AM73.4 °F64.4 °F73 %30.04 in7.0 miCalmMostly Cloudy
8:40 AM75.2 °F68.0 °F78 %30.07 in7.0 miCalmMostly Cloudy
8:50 AM78.0 °F74.0 °F84 %30.07 in6.0 miNNW (340°)4.5 mphPartly Cloudy
9:45 AM78.8 °F68.0 °F69 %30.07 in7.0 miCalmMostly Cloudy
10:45 AM82.4 °F69.8 °F66 %30.07 in5.0 miCalmRainRain
11:45 AM82.4 °F69.8 °F66 %30.04 in5.0 miCalmRainRain
11:50 AM89.0 °F71.0 °F46 %30.06 in6.0 miENE (70°)2.2 mphMostly Cloudy
12:45 PM80.6 °F77.0 °F89 %30.03 in7.0 miNNW (330°)5.8 mphMostly Cloudy
1:45 PM80.6 °F75.2 °F84 %30.01 in7.0 miNNW (330°)4.6 mphMostly Cloudy
2:40 PM78.8 °F71.6 °F78 %30.02 in7.0 miNorth (360°)6.9 mphOvercast
2:45 PM84.0 °F73.0 °F63 %30.02 in6.0 miNorth4.5 mphMostly Cloudy
3:45 PM78.8 °F71.6 °F78 %30.00 in7.0 miNorth (360°)6.9 mphMostly Cloudy
4:44 PM78.8 °F71.6 °F78 %30.01 in7.0 miNorth (360°)6.9 mphMostly Cloudy
5:40 PM75.2 °F68.0 °F78 %30.04 in7.0 miNorth (360°)11.5 mphMostly Cloudy
5:45 PM79.0 °F73.0 °F78 %30.04 in6.0 miNorth4.5 mphRainLight Drizzle
6:45 PM75.2 °F64.4 °F69 %30.05 in7.0 miNorth (360°)11.5 mphMostly Cloudy
7:45 PM73.4 °F64.4 °F73 %30.08 in7.0 miCalmClear
8:45 PM73.4 °F64.4 °F73 %30.09 in7.0 miCalmClear
8:50 PM73.0 °F70.0 °F87 %30.11 in5.0 miNorth4.5 mphScattered Clouds
11:50 PM72.0 °F69.0 °F89 %30.11 in5.0 miNNW (340°)4.5 mphPartly Cloudy
Hourly data recorded from MMCM, located miles away from Chetumal, Quintana Roo







STORIES FROM OUR PARTNERS